Saltar para o conteúdo principal

São Miguel / Santana (DROTRH)

ID 11217217 · 37.8049, -25.5618 mapa

Última leitura · 2026-05-09 19:00 (Europe/Lisbon)

Temperatura
15.4 °C
Humidade
79 %
Pressão
Precipitação
0.0 mm
Radiação
1,369 W/m²
Velocidade do vento
10.8 km/h
Direcção do vento
NW · Noroeste

Histórico de 24 horas

Hora (Europe/Lisbon) Temperatura Humidade Pressão Chuva Vento Direcção
2026-05-09 19:00 15.4 °C 79 % 0.0 mm 10.8 km/h NW
2026-05-09 18:00 16.2 °C 76 % 0.0 mm 18.0 km/h NW
2026-05-09 17:00 15.7 °C 77 % 0.0 mm 14.4 km/h NW
2026-05-09 16:00 15.4 °C 80 % 0.2 mm 19.1 km/h W
2026-05-09 15:00 15.0 °C 78 % 0.0 mm 20.9 km/h NW
2026-05-09 14:00 13.5 °C 81 % 16.6 km/h W
2026-05-09 13:00 14.7 °C 67 % 0.0 mm 16.2 km/h NW
2026-05-09 12:00 14.3 °C 59 % 0.0 mm 11.9 km/h W
2026-05-09 11:00 13.5 °C 67 % 0.0 mm 13.7 km/h NW
2026-05-09 10:00 13.0 °C 68 % 0.0 mm 11.2 km/h NW
2026-05-09 09:00 12.7 °C 71 % 0.0 mm 7.2 km/h NW
2026-05-09 08:00 12.9 °C 69 % 0.0 mm 7.9 km/h NW
2026-05-09 07:00 13.1 °C 71 % 0.0 mm 7.2 km/h NW
2026-05-09 06:00 12.8 °C 76 % 0.0 mm 8.3 km/h NW
2026-05-09 05:00 13.1 °C 73 % 0.0 mm 7.9 km/h NW
2026-05-09 04:00 13.3 °C 72 % 0.0 mm 7.2 km/h NW
2026-05-09 03:00 13.7 °C 71 % 0.0 mm 9.7 km/h NW
2026-05-09 02:00 13.7 °C 79 % 0.0 mm 11.5 km/h NW
2026-05-09 01:00 13.8 °C 79 % 0.0 mm 14.0 km/h NW
2026-05-09 00:00 13.6 °C 86 % 0.0 mm 14.4 km/h NW
2026-05-08 23:00 13.7 °C 88 % 0.1 mm 22.3 km/h NW
2026-05-08 22:00 14.0 °C 89 % 1.9 mm 21.6 km/h NW
2026-05-08 21:00 15.4 °C 81 % 0.0 mm 15.5 km/h NW
2026-05-08 20:00 16.0 °C 81 % 0.1 mm 15.1 km/h NW